Location: Azul
(36.7830°S, 59.8500°W)
Time: 09:03:00
(UTC-03:00)

UWE-3 - Pass Details

Date: 31 October 2021
Orbit: 584 x 681 km, 97.7° (Epoch: 06 December)

Event Time Altitude Azimuth Distance (km) Brightness Sun altitude
Exits shadow 03:15:12 - 52° (NE) 2,355 ? -27.7°
Reaches altitude 10° 03:16:11 10° 59° (ENE) 2,024 ? -27.6°
Maximum altitude 03:19:41 23° 112° (ESE) 1,372 ? -27.1°
Drops below altitude 10° 03:23:17 10° 164° (SSE) 2,094 ? -26.6°
Sets 03:25:54 0° 177° (S) 3,031 ? -26.2°
